User: anonymous   Login
Location: Unspecified
(0.0000°N, 0.0000°E)
Time: 08:50:28
(UTC+00:00)
Language:

STARLINK-30284 - Orbit

View from above orbital plane
View from above orbital plane
View from above satellite
View from above satellite

Ground track
Ground track

The orbit is defined by the following mean orbital elements,

1 57877U          26145.55117310 +.00000000 +00000-0 +19671-4 0 00006
2 57877  43.0005 174.4862 0001489 275.3002  84.7679 15.27587393    02
Epoch (UTC): 25 May 2026 13:13:41
Eccentricity: 0.0001489
inclination: 43.0005°
perigee height: 482 km
apogee height: 484 km
right ascension of ascending node: 174.4862°
argument of perigee: 275.3002°
revolutions per day: 15.27587393
mean anomaly at epoch: 84.7679°

The dashed part of the orbit path shows where the satellite is in the earth's shadow,  

DLR